Weather History for Tallahassee, FL

Change the Weather History Date:

Thursday, November 29, 2012

  Actual Average Record
Temperature  
Mean Temperature 55 °F 57 °F  
Max Temperature 71 °F 69 °F 83 °F (1931)
Min Temperature 38 °F 44 °F 25 °F (2002)
Degree Days  
Heating Degree Days 10    
Month to date heating degree days 212  
Since 1 July heating degree days 254  
Cooling Degree Days 0    
Month to date cooling degree days 15  
Year to date cooling degree days 2958  
Growing Degree Days 4 (Base 50)    
Moisture  
Dew Point 45 °F    
Average Humidity 69    
Maximum Humidity 92    
Minimum Humidity 45    
Precipitation  
Precipitation 0.00 in 0.14 in 2.35 in (1994)
Month to date precipitation 0.34 3.37  
Year to date precipitation 56.04 55.20  
Sea Level Pressure  
Sea Level Pressure 30.33 in    
Wind  
Wind Speed 3 mph (NE)    
Max Wind Speed 13 mph    
Max Gust Speed 15 mph    
Visibility 9 miles    
Events      
T = Trace of Precipitation, MM = Missing Value Source: NWS Daily Summary

Daily Weather History Graph

Daily Weather History Graph

Search for Another Location

Airport:

Trip Planner

Search our weather history database for the weather conditions in past years. The results will help you decide how hot, cold, wet, or windy it might be!

Date:

Astronomy

Nov. 29, 2012 Rise Set
Actual Time 7:15 AM EST 5:36 PM EST
Civil Twilight 6:49 AM EST 6:02 PM EST
Nautical Twilight 6:19 AM EST 6:32 PM EST
Astronomical Twilight 5:50 AM EST 7:01 PM EST
Moon 6:38 PM EST (11/29) 8:00 AM EST (11/29)
Length of Visible Light 11h 13m
Length of Day
10h 21m
Full, 99% of the Moon is Illuminated
Nov 29
Full
Dec 6
Last Quarter
Dec 13
New
Dec 20
First Quarter
Dec 28
Full

Hourly Weather History & Observations

Time (EST) Temp. Dew Point Humidity Pressure Visibility Wind Dir Wind Speed Gust Speed Precip Events Conditions
12:53 AM 44.1 °F 39.9 °F 85% 30.33 in 10.0 mi Calm Calm - N/A   Clear
1:53 AM 43.0 °F 39.9 °F 89% 30.32 in 10.0 mi Calm Calm - N/A   Clear
2:53 AM 39.9 °F 36.0 °F 86% 30.33 in 10.0 mi Calm Calm - N/A   Clear
3:31 AM 39.2 °F 35.6 °F 87% 30.34 in 10.0 mi Calm Calm - N/A   Mostly Cloudy
3:53 AM 41.0 °F 37.9 °F 89% 30.34 in 9.0 mi Calm Calm - N/A   Overcast
4:53 AM 45.0 °F 41.0 °F 86% 30.32 in 9.0 mi Calm Calm - N/A   Scattered Clouds
5:15 AM 44.6 °F 41.0 °F 87% 30.33 in 8.0 mi Calm Calm - N/A   Mostly Cloudy
5:53 AM 45.0 °F 42.1 °F 90% 30.34 in 8.0 mi Calm Calm - N/A   Mostly Cloudy
6:53 AM 46.9 °F 43.0 °F 86% 30.35 in 8.0 mi Calm Calm - N/A   Overcast
7:51 AM 48.2 °F 44.6 °F 87% 30.37 in 6.0 mi Calm Calm - N/A   Mostly Cloudy
7:53 AM 48.0 °F 44.1 °F 86% 30.37 in 6.0 mi Calm Calm - N/A   Mostly Cloudy
8:53 AM 54.0 °F 45.0 °F 72% 30.37 in 10.0 mi ENE 8.1 mph - N/A   Scattered Clouds
9:53 AM 57.0 °F 44.1 °F 62% 30.38 in 10.0 mi Variable 6.9 mph - N/A   Partly Cloudy
10:53 AM 61.0 °F 45.0 °F 56% 30.37 in 10.0 mi Variable 4.6 mph - N/A   Partly Cloudy
11:53 AM 64.0 °F 46.0 °F 52% 30.36 in 10.0 mi NE 5.8 mph - N/A   Clear
12:53 PM 66.9 °F 46.9 °F 49% 30.33 in 10.0 mi East 5.8 mph - N/A   Mostly Cloudy
1:53 PM 68.0 °F 46.9 °F 47% 30.31 in 10.0 mi NE 3.5 mph - N/A   Scattered Clouds
2:53 PM 70.0 °F 48.0 °F 46% 30.28 in 10.0 mi NE 6.9 mph - N/A   Partly Cloudy
3:53 PM 69.1 °F 48.0 °F 47% 30.27 in 10.0 mi ENE 3.5 mph - N/A   Mostly Cloudy
4:53 PM 68.0 °F 48.0 °F 49% 30.27 in 10.0 mi NE 6.9 mph - N/A   Partly Cloudy
5:53 PM 64.0 °F 48.9 °F 58% 30.29 in 10.0 mi Calm Calm - N/A   Partly Cloudy
6:53 PM 60.1 °F 50.0 °F 69% 30.30 in 10.0 mi Calm Calm - N/A   Overcast
7:53 PM 59.0 °F 50.0 °F 72% 30.30 in 10.0 mi North 3.5 mph - N/A   Mostly Cloudy
8:53 PM 59.0 °F 50.0 °F 72% 30.30 in 10.0 mi Calm Calm - N/A   Mostly Cloudy
9:53 PM 57.9 °F 48.9 °F 72% 30.30 in 10.0 mi Calm Calm - N/A   Partly Cloudy
10:53 PM 57.9 °F 50.0 °F 75% 30.31 in 10.0 mi ENE 5.8 mph - N/A   Clear
11:53 PM 55.9 °F 51.1 °F 84% 30.31 in 10.0 mi ENE 3.5 mph - N/A   Clear